Wind_Speed
23 23 23 24 24 25 25 25 26 26 27 26 26 25 25 25 25 24 25 25 24 24 25 26 26 26 26 27 26 25 25 24 24 23 23 23 23 24 24 24 23 23 23
23 23 24 25 26 26 26 27 27 27 27 27 27 26 27 27 27 26 26 26 26 26 26 26 26 26 26 26 27 27 26 26 25 25 24 24 24 25 25 25 25 25 25
24 24 25 26 27 27 27 28 28 28 28 28 28 28 29 28 28 27 28 27 27 27 27 28 28 28 27 27 27 28 27 27 27 27 27 26 25 25 26 26 26 25 25
26 26 27 28 28 28 29 29 29 29 29 29 29 29 30 29 29 29 28 28 27 27 27 27 28 28 28 28 28 29 29 28 27 28 28 28 27 27 27 27 27 27 26
27 28 28 28 28 29 29 29 29 29 29 30 30 30 30 30 30 29 28 27 27 27 27 28 28 28 29 29 29 29 29 29 29 28 28 29 29 29 29 29 29 28 28
29 29 29 29 29 30 30 30 30 30 30 30 30 30 30 30 30 29 29 28 28 28 29 29 29 29 29 30 31 30 31 30 30 29 29 30 30 30 30 30 29 28 28
30 30 30 30 31 31 30 30 30 30 31 31 31 31 30 30 30 30 30 30 30 30 30 30 30 30 30 31 32 32 32 32 32 31 31 31 31 31 31 30 29 29 28
31 31 31 32 32 31 30 30 31 31 31 31 31 31 30 30 30 31 31 32 32 32 32 31 32 32 32 32 32 33 33 33 33 33 33 33 32 32 32 31 30 30 30
32 32 32 33 33 32 32 32 32 32 32 32 31 31 31 32 32 33 33 33 33 33 33 33 33 33 33 33 33 33 33 33 34 34 34 34 33 33 32 31 31 31 30
33 34 34 34 34 34 34 34 33 33 33 33 33 33 33 34 34 34 34 34 35 34 34 34 35 35 35 35 34 34 34 34 34 35 34 33 34 33 32 31 31 31 31
34 35 35 35 35 35 36 36 35 35 34 34 34 34 35 35 35 35 35 36 35 35 35 35 36 35 36 36 36 35 34 34 34 34 33 33 33 33 32 31 31 31 31
34 35 36 36 37 37 37 37 37 36 35 35 35 35 36 36 35 36 36 36 35 34 35 35 36 36 36 35 35 34 34 34 34 34 33 32 32 32 31 31 31 31 31
34 35 36 37 37 38 38 38 38 37 37 36 36 36 36 36 36 36 36 37 37 36 35 36 35 35 34 34 34 34 34 34 33 33 32 31 31 32 31 31 31 31 31
34 35 36 37 38 38 38 38 38 38 37 37 37 37 37 37 37 37 37 37 37 36 35 35 35 34 34 33 34 34 33 33 32 31 30 30 30 30 31 30 30 30 30
34 35 36 36 36 37 37 38 39 38 38 38 38 37 37 36 35 36 36 36 36 36 35 34 33 32 32 32 32 32 32 32 31 31 31 30 29 29 29 29 29 28 29
35 35 36 35 35 36 37 38 38 38 38 38 38 37 36 36 35 36 36 35 34 34 33 32 31 31 31 31 31 30 31 31 31 31 31 30 30 29 28 27 28 28 27
35 35 35 35 35 35 36 36 36 36 37 37 37 37 37 36 36 35 34 33 32 32 32 30 30 29 29 30 30 30 30 30 30 30 31 31 31 30 30 29 28 27 27
35 35 35 35 35 35 35 35 35 35 35 35 36 36 36 36 35 34 33 32 31 30 29 29 28 28 29 29 28 28 28 28 29 30 30 30 30 30 30 30 28 27 27
36 35 35 35 35 35 34 34 34 34 34 34 35 35 35 34 33 32 31 30 29 29 28 28 28 28 28 28 27 27 28 28 29 30 30 30 30 30 29 29 28 27 27
35 35 35 35 34 33 33 33 32 32 33 33 33 32 32 31 31 30 30 29 28 28 28 28 28 29 28 27 27 27 28 29 29 30 29 29 29 29 29 29 28 27 27
33 33 33 33 33 32 32 32 32 32 31 31 31 30 30 29 30 29 29 28 28 27 27 28 28 27 27 27 27 28 28 28 29 29 29 28 28 28 28 28 27 26 26
32 32 32 32 32 32 32 31 31 30 30 29 29 28 28 28 29 29 29 28 27 27 27 27 26 25 25 25 26 26 26 27 27 27 27 27 27 27 27 26 26 26 26
31 31 31 31 31 31 31 31 30 29 29 28 28 27 27 27 28 27 27 27 27 27 27 26 25 24 23 23 23 23 23 24 24 24 25 25 26 26 26 26 26 25 25
30 31 31 31 31 30 30 30 29 28 28 28 27 27 26 26 26 26 26 26 26 25 24 24 23 22 22 22 22 22 22 21 22 23 23 24 25 25 26 26 25 25 25
30 30 30 29 29 29 28 28 27 27 27 27 26 25 25 24 24 24 24 24 24 23 22 21 21 20 20 20 21 21 22 22 22 22 24 24 24 24 25 26 26 25 25
29 29 29 28 27 27 27 26 26 26 25 25 25 24 23 23 22 22 22 22 21 20 20 19 20 20 20 20 20 21 21 21 21 22 23 23 23 24 25 25 25 25 25
Wind_Direction
278 281 285 287 288 290 290 292 293 292 293 292 290 289 289 289 289 289 285 283 280 279 277 273 271 269 268 265 265 265 264 265 265 265 267 266 264 265 266 267 268 267 266
278 280 284 286 287 289 290 291 291 292 292 290 288 288 289 289 288 287 284 281 280 280 277 275 272 270 268 267 266 266 265 266 266 266 265 267 267 267 268 269 270 270 269
279 280 283 284 286 288 290 291 291 291 291 289 287 287 288 289 288 286 284 282 282 280 278 277 275 269 267 267 266 266 265 265 266 266 266 265 268 269 269 269 270 271 271
280 281 282 284 285 287 288 290 291 291 290 289 286 287 288 288 288 287 285 283 281 279 278 278 279 275 269 266 265 264 264 264 265 267 268 268 268 270 269 268 268 268 268
280 282 283 284 286 288 289 290 291 290 289 288 286 287 287 288 288 287 285 282 281 280 279 278 278 277 271 268 266 264 264 264 266 268 268 270 269 270 269 268 268 266 266
280 281 282 285 287 288 289 289 290 289 288 287 286 286 286 287 287 285 283 283 282 281 279 278 278 276 272 269 266 266 265 266 267 267 268 270 270 271 269 268 268 267 266
279 280 282 284 286 287 288 289 289 289 289 289 287 286 286 286 286 284 283 282 282 281 279 277 276 276 273 270 267 266 265 265 266 267 268 269 269 269 269 267 267 266 265
278 280 282 284 285 287 287 288 287 287 288 287 287 287 285 285 284 284 283 283 282 280 278 277 277 276 275 272 269 267 267 266 266 268 268 268 267 267 267 266 265 264 264
280 281 282 282 284 286 286 287 286 286 286 285 285 286 285 284 283 283 283 283 283 281 279 278 277 276 275 273 271 269 268 268 268 268 269 267 265 265 265 265 265 265 264
280 280 281 282 282 284 285 285 286 286 284 283 284 285 285 285 285 284 283 284 283 281 280 279 277 276 274 272 271 270 268 267 267 268 269 267 264 263 263 262 263 264 265
281 281 281 281 282 283 284 285 285 285 283 283 284 285 285 285 285 285 285 285 283 282 281 279 277 276 274 272 271 270 268 266 266 267 266 265 263 261 260 260 261 263 264
284 283 282 281 281 281 282 284 285 284 283 283 284 285 285 284 285 284 285 285 284 282 281 279 277 276 274 272 271 270 268 266 264 264 263 262 261 260 260 259 260 263 263
285 284 283 283 283 281 282 282 284 283 282 283 284 285 285 284 284 284 285 285 284 281 281 279 277 275 274 272 270 269 268 267 264 262 260 260 259 259 258 259 261 262 262
287 287 286 286 284 283 283 283 283 283 283 283 283 284 286 286 284 284 284 284 284 283 282 280 277 274 272 271 270 269 267 265 263 260 259 257 256 257 256 258 260 260 260
288 288 289 289 288 286 284 284 285 284 284 284 284 285 286 286 286 286 286 284 284 282 281 280 277 275 274 272 270 268 264 262 260 259 257 255 253 255 256 257 257 259 259
289 290 290 290 289 288 287 286 285 285 285 285 285 285 286 286 286 285 285 285 283 282 281 280 277 276 274 272 269 265 263 260 257 255 255 254 253 254 254 256 257 258 260
290 290 290 291 291 290 289 287 286 285 286 286 285 285 285 286 287 285 284 284 283 281 280 279 277 276 275 272 269 264 261 258 256 254 253 253 253 253 253 255 257 259 259
290 291 291 291 291 292 291 290 288 286 285 285 285 285 285 285 286 284 283 284 283 282 281 279 278 278 275 272 269 265 260 257 256 253 251 251 253 252 254 255 256 258 259
291 292 292 292 292 292 292 291 290 288 287 286 286 286 285 285 284 284 283 283 283 282 281 280 279 278 276 273 269 264 259 257 255 253 251 252 253 254 255 256 256 258 259
290 291 291 291 291 292 291 291 291 290 290 288 286 285 285 285 284 283 283 282 281 282 282 280 280 277 274 271 268 264 260 256 255 252 253 253 254 255 256 256 256 256 257
289 290 291 292 292 291 291 291 291 290 291 291 288 286 285 284 284 283 282 281 280 281 282 281 279 277 272 269 268 265 261 256 254 252 252 252 253 253 254 254 253 253 255
288 290 292 292 291 291 292 292 292 292 292 291 290 288 285 285 285 284 281 280 280 281 283 283 280 276 272 270 268 264 260 255 253 251 251 249 250 251 252 253 252 252 254
289 291 292 292 291 291 292 293 292 290 290 291 290 288 286 286 285 285 282 281 282 282 283 282 278 273 270 269 268 263 258 254 250 249 249 248 248 248 250 252 252 252 254
289 291 292 292 291 291 292 292 293 292 292 291 290 289 286 284 285 285 283 281 281 283 283 281 278 273 270 269 266 262 260 257 255 253 251 250 248 249 250 251 252 252 254
289 291 292 293 293 292 292 292 292 293 294 294 293 290 287 284 284 285 284 281 280 280 278 277 275 273 271 268 265 263 260 258 259 259 257 253 250 250 251 252 253 252 253
289 290 293 295 295 294 294 293 293 293 294 296 296 292 289 286 283 284 285 284 281 278 276 274 271 270 270 267 265 264 261 259 258 259 258 254 251 250 252 254 255 255 255
Height
5801 5800 5799 5797 5796 5794 5792 5789 5787 5785 5782 5780 5777 5775 5773 5771 5769 5767 5765 5763 5762 5761 5760 5760 5760 5760 5760 5760 5761 5762 5763 5763 5764 5764 5765 5765 5765 5765 5765 5765 5765 5765 5765
5794 5793 5792 5791 5789 5787 5785 5783 5780 5778 5775 5773 5770 5768 5766 5764 5762 5760 5758 5756 5755 5754 5753 5753 5752 5752 5752 5753 5753 5754 5755 5755 5756 5756 5757 5757 5757 5757 5757 5758 5758 5757 5758
5787 5786 5785 5784 5782 5780 5778 5775 5773 5770 5768 5765 5763 5761 5759 5756 5754 5752 5750 5749 5747 5746 5745 5745 5745 5744 5744 5745 5745 5746 5747 5748 5748 5749 5749 5749 5749 5749 5749 5750 5750 5750 5749
5780 5779 5778 5776 5774 5772 5770 5767 5765 5762 5759 5757 5754 5752 5750 5748 5746 5744 5742 5741 5740 5738 5737 5737 5736 5736 5736 5736 5737 5737 5738 5739 5740 5740 5740 5741 5741 5741 5741 5741 5741 5741 5741
5772 5771 5770 5768 5766 5764 5762 5759 5757 5754 5751 5749 5746 5744 5742 5740 5738 5736 5734 5732 5731 5730 5729 5728 5728 5727 5726 5727 5728 5728 5729 5730 5731 5731 5732 5732 5732 5732 5732 5733 5733 5733 5733
5764 5763 5761 5759 5757 5755 5753 5751 5748 5746 5743 5740 5738 5735 5733 5731 5729 5727 5725 5724 5723 5722 5721 5720 5719 5718 5718 5718 5718 5719 5720 5721 5722 5722 5723 5723 5723 5723 5723 5723 5723 5724 5724
5756 5754 5753 5751 5749 5746 5744 5742 5739 5737 5734 5731 5729 5727 5724 5722 5720 5718 5716 5715 5714 5712 5712 5711 5710 5709 5708 5709 5709 5710 5710 5711 5712 5713 5713 5713 5713 5713 5713 5713 5713 5714 5715
5747 5745 5744 5742 5740 5738 5735 5733 5731 5728 5725 5723 5721 5718 5716 5713 5711 5709 5707 5705 5704 5703 5702 5701 5700 5699 5699 5698 5699 5699 5700 5701 5702 5702 5703 5703 5703 5703 5703 5703 5703 5704 5705
5737 5736 5734 5733 5731 5729 5726 5724 5721 5719 5716 5714 5711 5709 5707 5704 5702 5700 5697 5695 5694 5692 5691 5690 5689 5689 5688 5688 5688 5689 5690 5690 5690 5691 5691 5691 5691 5692 5692 5693 5693 5694 5695
5728 5726 5725 5723 5721 5719 5717 5714 5712 5709 5707 5704 5702 5700 5697 5695 5692 5690 5687 5685 5684 5682 5681 5679 5678 5678 5677 5677 5677 5678 5679 5679 5679 5679 5680 5680 5680 5681 5681 5682 5683 5684 5684
5718 5716 5714 5712 5711 5709 5706 5704 5701 5699 5696 5694 5692 5690 5687 5685 5682 5680 5677 5674 5672 5671 5670 5668 5667 5666 5666 5666 5666 5666 5667 5667 5667 5668 5668 5669 5670 5670 5671 5672 5673 5674 5674
5708 5706 5704 5702 5700 5698 5696 5693 5690 5688 5686 5684 5682 5679 5677 5674 5672 5669 5666 5664 5661 5660 5658 5657 5656 5654 5654 5654 5654 5655 5655 5655 5656 5657 5657 5658 5659 5660 5661 5662 5663 5664 5664
5698 5695 5693 5691 5689 5687 5684 5682 5680 5677 5675 5673 5671 5669 5666 5664 5661 5658 5655 5653 5650 5648 5646 5645 5644 5643 5642 5643 5643 5643 5643 5644 5644 5645 5646 5648 5649 5650 5650 5651 5652 5653 5654
5688 5685 5682 5680 5678 5675 5673 5671 5669 5666 5664 5662 5660 5658 5656 5653 5650 5647 5644 5641 5638 5636 5635 5633 5632 5631 5631 5631 5632 5632 5632 5632 5633 5634 5636 5637 5638 5639 5641 5642 5642 5643 5644
5678 5675 5672 5669 5667 5664 5662 5659 5657 5655 5652 5650 5648 5646 5644 5642 5639 5636 5633 5630 5628 5625 5623 5622 5621 5621 5620 5620 5620 5620 5621 5622 5623 5624 5625 5627 5628 5630 5631 5632 5633 5634 5635
5668 5665 5662 5659 5656 5654 5651 5648 5645 5643 5641 5638 5636 5635 5632 5630 5627 5625 5622 5620 5617 5615 5613 5612 5611 5611 5610 5610 5610 5610 5610 5611 5612 5614 5615 5617 5619 5620 5621 5623 5624 5625 5626
5657 5654 5652 5649 5646 5643 5640 5638 5635 5633 5630 5628 5625 5623 5621 5618 5616 5613 5611 5609 5607 5605 5604 5603 5602 5601 5600 5600 5599 5599 5600 5601 5602 5604 5606 5607 5609 5610 5612 5613 5614 5615 5616
5647 5644 5641 5639 5636 5633 5630 5627 5624 5622 5620 5617 5614 5612 5609 5607 5605 5603 5601 5599 5597 5596 5594 5593 5592 5591 5591 5590 5590 5590 5590 5591 5592 5594 5596 5597 5599 5601 5602 5604 5605 5606 5607
5637 5634 5631 5628 5625 5622 5619 5616 5614 5611 5609 5607 5604 5601 5599 5596 5594 5592 5590 5589 5588 5587 5585 5584 5583 5582 5581 5580 5580 5580 5581 5582 5583 5584 5586 5588 5590 5591 5593 5594 5596 5597 5598
5627 5624 5621 5618 5615 5612 5609 5607 5604 5601 5598 5596 5593 5591 5589 5587 5585 5583 5581 5580 5579 5577 5576 5575 5573 5572 5571 5571 5571 5571 5571 5572 5574 5575 5577 5579 5580 5582 5584 5585 5587 5588 5589
5617 5614 5611 5608 5606 5603 5600 5597 5594 5591 5589 5586 5583 5581 5579 5578 5576 5574 5572 5571 5570 5568 5567 5565 5564 5563 5562 5562 5562 5562 5562 5563 5564 5566 5568 5570 5571 5573 5575 5576 5578 5579 5581
5607 5604 5602 5599 5596 5593 5590 5587 5584 5582 5579 5577 5574 5572 5570 5568 5567 5565 5564 5562 5561 5560 5558 5557 5555 5554 5553 5553 5553 5553 5554 5555 5556 5557 5559 5561 5563 5564 5566 5568 5569 5571 5573
5598 5595 5592 5589 5587 5584 5581 5578 5576 5573 5571 5568 5566 5564 5562 5560 5558 5556 5555 5554 5552 5551 5550 5548 5547 5546 5545 5545 5545 5546 5546 5547 5548 5550 5551 5553 5555 5556 5558 5560 5561 5563 5565
5588 5586 5583 5580 5577 5575 5572 5570 5567 5564 5562 5560 5557 5555 5553 5551 5550 5548 5546 5545 5544 5543 5541 5540 5539 5538 5538 5538 5538 5538 5539 5540 5541 5542 5543 5545 5547 5549 5550 5552 5554 5555 5556
5579 5577 5574 5571 5568 5566 5563 5561 5558 5556 5554 5551 5549 5547 5545 5543 5542 5540 5538 5537 5536 5534 5533 5533 5532 5531 5531 5531 5532 5532 5532 5533 5534 5535 5536 5537 5539 5541 5543 5544 5546 5547 5549
5570 5568 5565 5562 5560 5557 5555 5553 5551 5548 5546 5543 5541 5539 5537 5535 5534 5532 5531 5529 5528 5527 5527 5526 5525 5525 5525 5525 5525 5525 5526 5526 5527 5528 5529 5530 5532 5533 5535 5536 5538 5539 5540